Location: Unspecified
(40.7945°N, 0.0000°E)
Time: 13:12:04
(UTC+00:00)

deb Explorer IX - Pass Details

Date: 25 June 2021
Orbit: 542 x 1095 km, 38.8° (Epoch: 27 July)

Event Time Altitude Azimuth Distance (km) Brightness Sun altitude
Exits shadow 03:18:45 14° 203° (SSW) 1,848 ? -11.3°
Maximum altitude 03:21:49 25° 155° (SSE) 1,274 ? -10.9°
Drops below altitude 10° 03:25:22 10° 100° (E) 1,898 ? -10.4°
Sets 03:27:51 0° 86° (E) 2,749 ? -10.1°
